Погода в Тиарете

Алжир     35°22′07″N   1°19′07″E
темп.,
°C
ветер,
м/с
пор.,
м/с
влажн.,
%
обл.,
%
осадки,
мм/ч
давл.,
гПа
погр.,
м
23 апреля, пт
пт2301:00+12сз2268100 0.1 101538
04:00+9зсз228893 0.0 101617
07:00+9всв0090100 0.0 101714
10:00+15св23596 0.0 1017739
13:00+19св213786 0.0 10151632
16:00+21ссз2231100 0.0 10141891
19:00+18ссз4444100 0.0 101473
22:00+15всв334829 0.0 101619
24 апреля, сб
сб2401:00+13вюв58595 0.0 1015104
04:00+13вюв4659100 0.0 101476
07:00+14юв4855100 0.0 1015130
10:00+20ююв7836100 0.0 1015703
13:00+24ююв7729100 0.0 10131709
16:00+26юв810265 0.0 10112617
19:00+23ююв610310 0.0 1010142
22:00+21ююв1118323 0.0 1012382
25 апреля, вс
вс2501:00+18ююв13214399 0.0 1011446
04:00+16ююв152246100 0.0 1010419
07:00+16ююв162445100 0.0 1010461
10:00+20ююв162237100 0.0 1010883
13:00+24ююв161926100 0.0 10091122
16:00+25ю141725100 0.0 10071547
19:00+23ююв11172852 0.0 1006482
22:00+20ююв1322270 0.0 1006566
26 апреля, пн
пн2601:00+18ююв1116290 0.0 1007301
04:00+12з246317 0.0 100847
07:00+11сз3488100 0.0 1009416
10:00+15зсз466789 0.0 1009767
13:00+19сз66415 0.0 10091634
16:00+19сз554074 0.0 10071573
19:00+17ссз56505 0.0 1008209
22:00+13ссв11675 0.0 101010
27 апреля, вт
вт2701:00+12сз117098 0.0 101010
04:00+12ююз2269100 0.0 100910
07:00+13ююз1165100 0.0 100910
10:00+18сз2441100 0.0 10101134
13:00+22з463538 0.0 10082098
16:00+23сз773698 0.0 10061921
19:00+18ссз6754100 0.0 1008421
22:00+14ссз2272100 0.0 101013